Erfurt Bindersleben, Germany

04:49 AM CEST am 25. April 2017 (GMT +0200)
Erfurt

Wetter Verlauf für EDDE - März, 2017

Change the Weather History Date:

Dienstag, März 21, 2017

  Actual Average (EDQM) Record (EDQM)
Temperature  
mittlereTemperatur 46 °F -  
Max. Temperatur 50 °F 41 °F 64 °F (2014)
Min.Temperatur 41 °F 30 °F 19 °F (2001)
Degree Days  
Heizgradtage 20    
Moisture  
Taupunkt 41 °F    
Average Humidity 84    
Maximum Humidity 100    
Minimum Humidity 71    
Niederschlag  
Niederschlag 0.00 inch - - ()
Luftdruck in Meereshöhe  
Luftdruck in Meereshöhe 29.78 inch    
Wind  
Windgeschwindigkeit 13 mph ()    
Max. Windgeschwindigkeit 20 mph    
Max Gust Speed -    
Sichtweite 6.2 Meilen    
Ereignisse Regen    
Averages and records for this station are not official NWS values.
T = Trace of Precipitation, MM = Missing Value Source: Averaged Metar Reports

Daily Weather History Graph

Daily Weather History Graph

Search for Another Location

Airport or City:

Trip Planner

Search our weather history database for the weather conditions in past years. The results will help you decide how hot, cold, wet, or windy it might be!

Date:

Astronomie

Mar. 21, 2017 Aufgang Untergang
Genaue Zeit 06:16 CET 18:30 CET
Bürgerliche Dämmerung 05:43 CET 19:03 CET
Nautische Dämmerung 05:04 CET 19:43 CET
Astronomische Dämmerung 04:24 CET 20:23 CET
Mond 02:22 CET (3/21) 11:18 CET (3/21)
Länge des sichtbaren Lichts 13h 20m
Tageslänge
12h 14m
Letztes Viertel, 42% of the Moon is Illuminated
Mrz 21
Letztes Viertel
Mrz 28
Neu
Apr 3
Erstes Viertel
Apr 11
Vollmond
Apr 19
Letztes Viertel

Hourly Weather History & Observations

Zeit (CET) Temp. Windchill Taupunkt Feuchtigkeit Druck Sichtweite Wind Dir Windgeschwindigkeit Böengeschwindigkeit Precip Ereignisse Wetterzustand
12:20 AM 48.2 °F - 41.0 °F 76% 29.71 inch 6.2 mi West-Südwest 19.6 mph - N/A   Wolkig
12:50 AM 48.2 °F - 41.0 °F 76% 29.71 inch 6.2 mi West-Südwest 17.3 mph - N/A   Wolkig
1:20 AM 46.4 °F 40.4 °F 39.2 °F 76% 29.71 inch 6.2 mi Südwest 13.8 mph - N/A   Teils Wolkig
1:50 AM 48.2 °F - 39.2 °F 71% 29.71 inch 6.2 mi Südwest 10.4 mph - N/A   Wolkig
2:20 AM 46.4 °F 40.7 °F 39.2 °F 76% 29.71 inch 6.2 mi Südwest 12.7 mph - N/A   Teils Wolkig
2:50 AM 46.4 °F 40.4 °F 39.2 °F 76% 29.71 inch 6.2 mi Südwest 13.8 mph - N/A   Wolkig
3:20 AM 46.4 °F 40.7 °F 39.2 °F 76% 29.71 inch 6.2 mi Südwest 12.7 mph - N/A   Wolkig
3:50 AM 46.4 °F 40.7 °F 39.2 °F 76% 29.71 inch 6.2 mi Süd-Südwest 12.7 mph - N/A   Wolkig
4:20 AM 46.4 °F 40.4 °F 39.2 °F 76% 29.71 inch 6.2 mi Südwest 13.8 mph - N/A   Wolkig
4:50 AM 48.2 °F - 39.2 °F 71% 29.71 inch 6.2 mi Südwest 17.3 mph - N/A   Wolkig
5:20 AM 48.2 °F - 41.0 °F 76% 29.71 inch 6.2 mi Südwest 18.4 mph - N/A   Wolkig
5:50 AM 46.4 °F 39.8 °F 41.0 °F 81% 29.71 inch 6.2 mi Südwest 16.1 mph - N/A   Wolkig
6:20 AM 46.4 °F 40.1 °F 41.0 °F 81% 29.74 inch 6.2 mi Südwest 15.0 mph - N/A   Wolkig
6:50 AM 48.2 °F - 41.0 °F 76% 29.71 inch 6.2 mi Südwest 13.8 mph - N/A   Wolkig
7:20 AM 48.2 °F - 41.0 °F 76% 29.74 inch 6.2 mi Südwest 16.1 mph - N/A   Wolkig
7:50 AM 48.2 °F - 42.8 °F 82% 29.74 inch 6.2 mi Süd-Südwest 15.0 mph - N/A Regen Leichter Regen
8:20 AM 48.2 °F - 42.8 °F 82% 29.74 inch 6.2 mi Südwest 16.1 mph - N/A   Wolkig
8:50 AM 48.2 °F - 44.6 °F 87% 29.74 inch 6.2 mi Südwest 16.1 mph - N/A   Wolkig
9:20 AM 48.2 °F - 44.6 °F 87% 29.74 inch 6.2 mi Südwest 15.0 mph - N/A Regen Leichter Regen
9:50 AM 50.0 °F - 44.6 °F 82% 29.74 inch 6.2 mi Süd-Südwest 13.8 mph - N/A   Wolkig
10:20 AM 50.0 °F - 44.6 °F 82% 29.74 inch 6.2 mi Südwest 17.3 mph - N/A Regen Leichter Regen
10:50 AM 50.0 °F - 44.6 °F 82% 29.77 inch 6.2 mi Südwest 17.3 mph - N/A   Wolkig
11:20 AM 50.0 °F - 44.6 °F 82% 29.77 inch 6.2 mi Südwest 17.3 mph - N/A Regen Leichter Regen
11:50 AM 44.6 °F 36.9 °F 44.6 °F 100% 29.77 inch 6.2 mi West 18.4 mph - N/A Regen Leichte Regenschauer
12:20 PM 46.4 °F 40.4 °F 42.8 °F 87% 29.77 inch 6.2 mi West-Südwest 13.8 mph - N/A Regen Leichte Regenschauer
12:50 PM 48.2 °F - 44.6 °F 87% 29.77 inch 6.2 mi West-Südwest 11.5 mph - N/A   Wolkig
1:20 PM 50.0 °F - 42.8 °F 76% 29.77 inch 6.2 mi Südwest 13.8 mph - N/A   Wolkig
1:50 PM 50.0 °F - 42.8 °F 76% 29.77 inch 6.2 mi West-Südwest 11.5 mph - N/A   Bedeckt
2:20 PM 50.0 °F - 42.8 °F 76% 29.77 inch 6.2 mi Südwest 12.7 mph - N/A   Bedeckt
2:50 PM 50.0 °F - 42.8 °F 76% 29.74 inch 6.2 mi Südwest 12.7 mph - N/A   Bedeckt
3:20 PM 50.0 °F - 42.8 °F 76% 29.74 inch 6.2 mi Südwest 11.5 mph - N/A   Bedeckt
3:50 PM 50.0 °F - 42.8 °F 76% 29.77 inch 6.2 mi West-Südwest 11.5 mph - N/A   Bedeckt
4:20 PM 42.8 °F 34.5 °F 42.8 °F 100% 29.80 inch 6.2 mi Nordwest 18.4 mph - N/A Regen Leichte Regenschauer
4:50 PM 42.8 °F 36.2 °F 41.0 °F 93% 29.80 inch 6.2 mi Nordwest 12.7 mph - N/A Regen Leichter Regen
5:20 PM 42.8 °F 37.0 °F 41.0 °F 93% 29.80 inch 6.2 mi Nordwest 10.4 mph - N/A Regen Leichter Regen
5:50 PM 42.8 °F 39.3 °F 42.8 °F 100% 29.83 inch 6.2 mi West 5.8 mph - N/A Regen Leichter Regen
6:20 PM 42.8 °F 38.0 °F 42.8 °F 100% 29.83 inch 6.2 mi West-Südwest 8.1 mph - N/A Regen Leichter Regen
6:50 PM 42.8 °F 38.6 °F 41.0 °F 93% 29.86 inch 6.2 mi West-Südwest 6.9 mph - N/A Regen Leichter Regen
7:20 PM 42.8 °F 38.6 °F 41.0 °F 93% 29.86 inch 6.2 mi West-Südwest 6.9 mph - N/A Regen Leichter Regen
7:50 PM 41.0 °F 37.1 °F 39.2 °F 93% 29.89 inch 6.2 mi West-Nordwest 5.8 mph - N/A Regen Leichter Regen
8:20 PM 41.0 °F 36.4 °F 39.2 °F 93% 29.89 inch 6.2 mi West 6.9 mph - N/A Regen Leichter Regen
8:50 PM 41.0 °F 36.4 °F 39.2 °F 93% 29.89 inch 6.2 mi West-Südwest 6.9 mph - N/A   Wolkig
9:20 PM 41.0 °F 38.0 °F 39.2 °F 93% 29.92 inch 6.2 mi West-Südwest 4.6 mph - N/A   Wolkig
9:50 PM 41.0 °F 37.1 °F 39.2 °F 93% 29.92 inch - West-Südwest 5.8 mph - N/A   Heiter
10:20 PM 41.0 °F 37.1 °F 39.2 °F 93% 29.92 inch - West 5.8 mph - N/A   Heiter
10:50 PM 41.0 °F 36.4 °F 39.2 °F 93% 29.92 inch - West 6.9 mph - N/A   Heiter
11:20 PM 41.0 °F 36.4 °F 39.2 °F 93% 29.92 inch 6.2 mi West 6.9 mph - N/A   Wolkig
11:50 PM 41.0 °F 36.4 °F 39.2 °F 93% 29.92 inch 6.2 mi West 6.9 mph - N/A   Wolkig